Newport, AR

10:35 AM CDT on October 18, 2017 (GMT -0500)
Newport

Weather History for KM19 - April, 2014

Change the Weather History Date:

Friday, April 25, 2014

  Actual Average (KBVX) Record (KBVX)
Temperature  
Mean Temperature 62 °F -  
Max Temperature 73 °F 74 °F 87 °F (1954)
Min Temperature 52 °F 47 °F 35 °F (1969)
Degree Days  
Heating Degree Days 2    
Growing Degree Days 12 (Base 50)    
Moisture  
Dew Point 50 °F    
Average Humidity 59    
Maximum Humidity 80    
Minimum Humidity 35    
Precipitation  
Precipitation 0.00 in - - ()
Sea Level Pressure  
Sea Level Pressure 29.94 in    
Wind  
Wind Speed 10 mph (South)    
Max Wind Speed 16 mph    
Max Gust Speed 21 mph    
Visibility 6 miles    
Events Rain    
Averages and records for this station are not official NWS values.
T = Trace of Precipitation, MM = Missing Value Source: NWS Daily Summary

Daily Weather History Graph

Daily Weather History Graph

Search for Another Location

Airport or City:

Trip Planner

Search our weather history database for the weather conditions in past years. The results will help you decide how hot, cold, wet, or windy it might be!

Date:

Astronomy

Apr. 25, 2014 Rise Set
Actual Time 6:19 AM CDT 7:46 PM CDT
Civil Twilight 5:52 AM CDT 8:13 PM CDT
Nautical Twilight 5:20 AM CDT 8:45 PM CDT
Astronomical Twilight 4:46 AM CDT 9:19 PM CDT
Moon 3:59 AM CDT (4/25) 4:16 PM CDT (4/25)
Length of Visible Light 14h 20m
Length of Day
13h 26m
Waning Crescent, 15% of the Moon is Illuminated
Apr 25
Waning Crescent
Apr 29
New
May 6
First Quarter
May 14
Full
May 21
Last Quarter

Hourly Weather History & Observations

Time (CDT) Temp. Dew Point Humidity Pressure Visibility Wind Dir Wind Speed Gust Speed Precip Events Conditions
12:40 AM 60.8 °F 53.6 °F 77% 29.80 in 10.0 mi WNW 12.7 mph 19.6 mph N/A   Overcast
12:56 AM 61.0 °F 52.9 °F 75% 29.79 in 10.0 mi WNW 16.1 mph - N/A   Mostly Cloudy
1:31 AM 60.8 °F 53.6 °F 77% 29.80 in 10.0 mi NNW 9.2 mph - N/A   Mostly Cloudy
1:56 AM 59.9 °F 52.9 °F 78% 29.81 in 10.0 mi NNW 9.2 mph - N/A   Overcast
2:42 AM 60.8 °F 53.6 °F 77% 29.82 in 10.0 mi NW 9.2 mph - N/A   Overcast
2:56 AM 59.9 °F 52.0 °F 75% 29.82 in 10.0 mi WNW 15.0 mph - N/A   Overcast
3:06 AM 60.8 °F 51.8 °F 72% 29.83 in 10.0 mi NW 12.7 mph - N/A   Overcast
3:15 AM 60.8 °F 51.8 °F 72% 29.84 in 10.0 mi WNW 12.7 mph 20.7 mph N/A   Overcast
3:56 AM 57.9 °F 48.9 °F 72% 29.85 in 10.0 mi WNW 11.5 mph - N/A   Mostly Cloudy
4:56 AM 54.9 °F 46.9 °F 75% 29.89 in 10.0 mi NW 11.5 mph - N/A   Clear
5:56 AM 52.9 °F 45.9 °F 77% 29.92 in 10.0 mi WNW 9.2 mph - N/A   Clear
6:56 AM 52.0 °F 45.9 °F 80% 29.95 in 10.0 mi WNW 9.2 mph - N/A   Clear
7:56 AM 55.9 °F 45.9 °F 69% 29.98 in 10.0 mi NW 9.2 mph - N/A   Clear
9:56 AM 63.0 °F 45.0 °F 52% 30.03 in 10.0 mi NNW 10.4 mph - N/A   Clear
10:56 AM 65.8 °F 43.9 °F 45% 30.03 in 10.0 mi NNW 5.8 mph - N/A   Clear
11:56 AM 68.0 °F 45.0 °F 43% 30.04 in 10.0 mi NNE 5.8 mph - N/A   Clear
12:56 PM 70.0 °F 46.9 °F 44% 30.03 in 10.0 mi ENE 5.8 mph - N/A   Clear
1:56 PM 72.0 °F 45.9 °F 39% 30.01 in 10.0 mi East 5.8 mph - N/A   Clear
2:56 PM 72.9 °F 45.0 °F 37% 30.00 in 9.0 mi Variable 4.6 mph - N/A   Clear
3:56 PM 72.9 °F 43.9 °F 35% 29.99 in 5.0 mi Variable 3.5 mph - N/A   Haze
4:47 PM 73.4 °F 46.4 °F 38% 29.98 in 2.0 mi SW 3.5 mph - N/A   Haze
4:56 PM 73.9 °F 45.9 °F 37% 29.97 in 5.0 mi South 8.1 mph - N/A   Haze
5:11 PM 73.4 °F 48.2 °F 41% 29.97 in 1.2 mi SE 12.7 mph - 0.00 in Rain Light Rain
5:18 PM 73.4 °F 46.4 °F 38% 29.97 in 0.5 mi South 12.7 mph - 0.00 in Rain Light Rain
5:22 PM 73.4 °F 46.4 °F 38% 29.97 in 2.0 mi South 6.9 mph 16.1 mph 0.00 in Rain Light Rain
5:25 PM 73.4 °F 48.2 °F 41% 29.97 in 0.8 mi SE 11.5 mph 16.1 mph 0.00 in Rain Light Rain
5:30 PM 73.4 °F 48.2 °F 41% 29.97 in 0.2 mi SSE 12.7 mph - 0.00 in Rain Light Rain
5:48 PM 73.4 °F 48.2 °F 41% 29.97 in 0.2 mi SE 9.2 mph - 0.00 in Rain Light Rain
5:56 PM 72.9 °F 47.8 °F 41% 29.97 in 0.2 mi ESE 11.5 mph - 0.00 in Rain Light Rain
6:31 PM 71.6 °F 48.2 °F 43% 29.96 in 0.2 mi South 13.8 mph - 0.00 in Rain Light Rain
6:43 PM 71.6 °F 51.8 °F 50% 29.96 in 0.2 mi South 10.4 mph - 0.00 in Rain Light Rain
6:56 PM 70.9 °F 52.9 °F 53% 29.96 in 0.8 mi South 10.4 mph - 0.00 in Rain Light Rain
6:58 PM 71.6 °F 51.8 °F 50% 29.96 in 1.5 mi South 11.5 mph - 0.00 in Rain Light Rain
7:19 PM 69.8 °F 53.6 °F 56% 29.96 in 2.0 mi South 11.5 mph - 0.00 in Rain Light Rain
7:30 PM 68.0 °F 53.6 °F 60% 29.97 in 4.0 mi South 9.2 mph - 0.00 in Rain Light Rain
7:56 PM 64.9 °F 54.9 °F 70% 29.96 in 10.0 mi South 8.1 mph - 0.00 in Rain Light Rain
8:36 PM 64.4 °F 55.4 °F 73% 29.97 in 1.8 mi ESE 9.2 mph - 0.00 in Rain Light Rain
8:43 PM 64.4 °F 55.4 °F 73% 29.97 in 1.2 mi SE 9.2 mph - 0.00 in Rain Light Rain
8:47 PM 64.4 °F 55.4 °F 73% 29.97 in 0.8 mi ESE 9.2 mph - 0.00 in Rain Light Rain
8:56 PM 63.0 °F 54.0 °F 72% 29.97 in 0.2 mi ESE 10.4 mph - 0.00 in Rain Light Rain
9:07 PM 62.6 °F 53.6 °F 72% 29.97 in 0.8 mi SE 5.8 mph - 0.00 in Rain Light Rain
9:24 PM 62.6 °F 53.6 °F 72% 29.98 in 1.2 mi ESE 8.1 mph - 0.00 in Rain Light Rain
9:26 PM 62.6 °F 53.6 °F 72% 29.98 in 3.0 mi ESE 6.9 mph - 0.00 in Rain Light Rain
9:56 PM 63.0 °F 52.0 °F 67% 29.98 in 10.0 mi SE 5.8 mph - 0.00 in   Clear
10:56 PM 61.9 °F 50.9 °F 67% 29.99 in 10.0 mi Variable 5.8 mph - N/A   Clear
11:56 PM 59.0 °F 50.9 °F 74% 29.98 in 10.0 mi SE 6.9 mph - N/A   Clear